Wind_Speed
85 84 83 81 80 78 77 76 75 74 74 73 72 70 69 68 67 67 67 67 68 70 71 73 75 76 78 79 81 82 83 85 87 88 90 91 92 92 93 93 93 93 94 94 95 95 94 93 91 90 88 87 85 84 83 82 81 80 79 78 78 78 78 79 80 81 82 83 84 84 84 84 83 82 81 79 79 78 79 79 80 80 80 80 79 77
82 81 79 78 76 75 74 74 73 73 72 72 71 70 69 69 69 69 70 71 72 74 75 77 78 80 81 83 84 86 87 89 91 92 93 94 95 95 95 94 94 94 94 94 94 94 93 92 90 88 86 85 84 82 81 80 79 79 78 78 78 79 79 80 81 82 83 83 84 83 83 82 81 80 79 78 78 78 79 79 80 80 80 79 77 75
78 77 76 75 74 73 73 73 72 72 72 71 71 71 71 71 72 73 74 75 77 78 79 80 82 84 85 87 89 91 92 94 95 96 96 97 97 97 97 96 96 95 95 94 94 94 92 91 89 87 85 83 82 81 80 79 78 78 78 78 79 79 80 81 82 82 83 83 83 82 82 81 80 79 78 78 78 78 79 80 80 80 79 77 75 73
75 74 74 74 73 73 73 73 73 73 73 73 74 74 75 76 77 78 79 80 81 83 84 85 87 89 91 93 95 96 97 98 99 99 99 99 99 99 98 98 97 96 95 94 94 93 91 89 87 86 84 83 81 80 79 79 78 78 78 79 79 80 81 82 82 83 83 82 82 81 81 80 79 79 78 78 78 79 79 80 79 79 77 75 73 70
75 75 75 75 75 75 75 75 75 76 76 77 78 79 80 81 82 83 84 85 86 88 90 91 93 94 96 98 99 100 101 101 101 101 100 100 99 99 99 98 97 96 95 94 93 92 90 88 86 84 83 81 80 79 79 78 78 79 79 80 80 81 82 82 82 82 82 82 81 80 80 79 79 78 78 78 79 79 79 79 78 77 75 73 70 68
80 80 80 80 80 80 80 80 80 81 82 83 84 85 86 87 88 89 90 91 92 94 95 97 98 99 100 101 102 102 102 102 102 101 100 100 99 99 98 98 97 95 94 93 91 90 88 86 84 82 81 80 79 78 78 78 78 79 80 80 81 82 82 82 82 82 81 80 80 79 79 78 78 78 79 79 79 79 79 78 77 75 72 70 68 66
88 88 88 87 87 87 87 87 87 88 88 89 90 91 92 93 94 95 96 97 98 99 100 101 101 102 102 103 103 103 103 103 102 101 100 100 99 99 98 97 96 94 92 90 89 87 85 83 82 80 79 78 77 77 77 78 78 79 80 81 81 82 82 81 81 81 80 79 79 78 78 78 78 79 79 79 79 79 78 76 74 72 70 68 66 64
96 95 95 95 95 95 95 95 95 95 95 95 96 97 98 99 99 100 101 101 102 102 102 103 103 103 103 103 103 103 103 103 103 102 101 101 100 99 98 96 94 92 90 88 86 84 82 81 79 78 77 76 76 76 77 78 78 79 80 81 81 81 81 81 80 79 79 78 78 77 78 78 78 79 79 79 79 78 76 74 72 69 67 66 64 63
102 102 102 102 101 101 101 101 101 101 101 101 101 102 102 103 103 103 103 104 104 104 104 104 104 104 104 104 104 104 104 104 104 103 102 101 100 98 96 94 92 89 87 85 83 82 80 79 78 77 76 76 76 76 77 78 78 79 80 80 80 80 80 80 79 78 78 77 77 77 77 78 79 79 79 78 77 75 73 71 69 67 65 64 63 62
107 107 107 107 106 106 106 106 106 106 106 106 105 105 105 105 105 105 105 105 105 105 105 105 105 105 106 106 106 106 105 105 105 104 102 100 99 97 94 92 89 87 85 84 82 80 79 78 77 77 76 76 76 76 77 77 78 79 79 79 79 79 79 78 78 77 77 77 77 77 78 78 78 78 78 76 75 73 71 68 66 65 64 63 62 61
110 110 110 110 110 110 109 109 109 109 109 109 108 108 108 108 107 107 107 107 107 107 107 107 107 107 107 107 107 107 106 106 105 103 101 99 96 94 92 90 88 86 85 83 82 80 79 78 77 77 76 76 76 76 77 77 78 78 78 78 78 78 78 77 77 77 77 77 77 77 77 78 77 77 75 74 72 70 68 66 65 63 62 61 61 61
113 113 112 112 112 112 111 111 111 111 110 110 110 110 110 109 109 108 108 109 109 109 109 109 109 109 109 108 107 107 106 105 103 102 99 97 95 92 90 89 87 86 85 83 81 79 78 77 77 76 76 76 76 76 76 77 77 78 78 77 77 77 77 76 76 76 76 77 77 77 77 76 75 74 72 71 69 67 66 64 63 62 61 61 61 60
114 114 113 113 113 113 112 112 112 111 111 110 110 110 110 110 110 109 109 110 110 110 110 110 110 109 108 107 106 105 104 103 102 100 98 95 93 91 89 88 87 85 84 82 80 78 77 76 75 75 75 75 75 76 76 76 77 77 77 76 76 76 76 76 76 76 76 76 76 75 75 74 72 71 69 68 66 65 64 63 62 61 61 61 60 61
114 114 114 113 113 113 113 112 112 112 112 111 111 111 111 111 110 110 110 110 110 110 109 109 108 108 107 105 104 103 101 100 100 98 96 94 92 90 88 87 85 84 82 80 78 76 75 74 74 74 74 74 74 75 75 75 76 76 76 76 75 75 75 74 74 74 74 74 74 73 72 71 69 68 67 66 65 64 63 62 61 61 61 61 61 61
115 114 114 114 114 114 114 113 113 113 113 113 113 113 112 112 112 111 111 111 110 110 109 108 107 106 105 104 102 101 99 98 97 95 94 92 91 89 87 85 84 82 80 78 76 75 73 72 72 72 72 72 72 73 73 74 74 74 74 74 74 73 73 73 72 72 72 71 71 70 69 68 67 66 65 65 64 63 62 62 61 61 61 61 61 62
116 116 116 116 116 116 116 116 116 116 116 115 115 115 114 114 114 113 112 111 110 109 108 107 106 105 104 102 101 99 96 95 94 93 91 90 89 88 86 84 83 81 79 77 75 73 72 71 70 70 69 70 70 71 72 72 73 72 72 72 71 71 70 70 70 69 69 69 68 68 67 66 66 65 65 64 63 62 62 61 61 61 61 61 61 62
119 119 119 119 119 119 119 118 118 118 118 117 117 116 116 115 114 113 112 111 110 109 107 106 104 103 102 101 99 97 94 92 91 90 89 88 87 86 84 82 81 80 79 77 74 73 71 70 69 68 68 68 69 69 70 70 70 70 70 69 69 68 68 68 67 67 67 67 67 66 66 66 65 65 64 63 63 62 61 61 61 61 61 61 62 63
120 121 121 121 121 121 120 120 119 119 118 118 117 117 116 115 113 112 111 110 108 107 106 105 103 101 100 98 97 95 93 90 89 88 86 85 85 84 82 81 80 79 78 77 75 73 71 70 69 68 68 68 68 68 68 69 69 68 68 67 67 67 66 66 66 66 66 66 66 66 66 65 65 64 64 63 62 62 61 61 61 61 61 62 63 63
121 121 121 121 121 121 120 120 119 119 118 117 116 115 114 113 112 111 109 108 107 106 105 103 102 100 98 96 95 94 91 89 87 85 84 83 82 82 80 78 77 77 76 75 74 73 72 70 69 69 68 68 68 68 68 68 68 68 67 67 67 66 66 66 66 66 66 66 66 65 65 65 65 64 63 63 62 62 61 61 61 61 62 63 63 64
120 120 120 119 119 119 118 118 118 117 116 115 115 113 112 112 111 110 108 107 106 105 104 102 100 99 97 95 94 92 90 87 85 84 82 81 80 79 78 76 75 74 74 74 73 72 71 71 70 70 70 69 69 69 69 69 69 69 68 68 67 67 67 66 66 66 66 65 65 65 65 65 64 64 63 62 62 61 61 61 62 62 63 63 64 65
119 119 119 118 118 117 117 117 117 116 116 115 114 113 112 111 111 110 109 108 106 105 103 101 100 98 96 94 92 90 89 86 84 82 81 80 79 78 77 75 74 74 73 73 72 71 70 70 70 70 70 70 70 70 69 69 69 69 68 68 67 67 66 66 66 66 66 66 66 66 65 65 64 63 63 62 62 62 62 62 62 63 64 65 66 66
119 119 119 118 118 117 117 117 116 116 116 115 114 114 113 112 111 111 110 109 107 105 104 102 100 98 96 94 92 90 88 86 84 82 81 79 79 78 77 75 74 73 73 73 72 71 71 70 70 70 70 70 70 69 69 68 68 68 67 67 66 66 66 66 66 66 66 66 66 66 65 64 64 63 62 62 62 62 62 63 64 64 65 66 67 68
119 119 119 118 118 118 117 117 117 116 116 115 115 114 114 113 112 111 111 109 108 106 105 103 101 99 96 94 93 91 89 87 84 83 81 79 79 79 78 76 74 74 73 73 72 71 71 71 71 71 71 71 70 69 69 69 68 68 68 68 67 67 67 67 67 67 67 67 66 65 64 64 63 62 62 62 63 63 64 64 65 66 67 67 68 69
119 119 118 118 118 118 117 117 117 116 115 114 114 114 113 112 112 111 110 109 108 106 105 103 101 99 97 95 93 91 90 88 86 83 82 80 80 79 78 76 75 74 74 73 72 71 71 72 72 72 72 71 71 70 70 70 70 69 69 69 68 68 68 68 68 67 67 66 65 64 64 63 63 62 63 63 64 64 65 66 67 67 68 69 70 70
119 118 118 118 118 117 117 117 116 116 115 114 113 112 112 111 110 109 108 107 106 105 103 102 100 98 97 95 93 92 90 89 86 84 82 81 80 80 79 77 75 74 74 73 72 72 71 72 72 72 72 71 71 71 71 71 71 70 70 69 69 69 68 68 68 67 66 65 64 63 63 63 63 63 64 65 65 66 67 67 68 69 69 70 71 71
118 118 118 117 117 117 116 116 115 115 114 113 112 111 110 109 107 106 105 104 103 101 100 99 98 96 95 94 92 91 90 88 86 84 82 81 80 80 79 77 75 74 74 73 73 72 72 72 72 72 72 72 72 72 72 72 71 70 70 69 69 69 68 67 67 66 65 64 63 63 63 64 64 65 65 66 67 68 68 69 69 70 71 71 72 72
117 117 116 115 115 114 114 113 113 112 111 110 108 107 106 105 104 103 102 100 99 98 96 95 94 94 93 92 91 90 89 88 86 84 83 81 80 79 79 77 76 75 74 74 74 73 72 72 73 73 72 72 72 72 72 71 71 70 69 69 69 68 67 66 65 64 64 64 64 64 65 65 66 67 67 68 68 69 70 70 71 71 72 72 73 73
114 113 112 112 111 110 109 109 107 106 105 104 103 101 100 99 99 98 98 97 96 95 94 93 92 92 91 90 90 90 89 88 86 85 83 82 80 79 78 77 76 76 75 75 75 74 73 73 73 72 72 72 71 71 71 70 69 69 68 68 67 66 65 65 64 64 64 64 65 66 66 67 68 68 69 69 70 70 71 71 72 72 73 73 74 74
109 108 107 106 105 104 103 102 101 100 99 97 96 95 94 93 93 92 92 92 91 91 91 91 91 91 90 90 90 89 89 88 88 86 85 83 82 80 79 77 76 75 74 74 74 73 73 72 71 71 70 70 70 69 69 68 68 67 67 66 65 65 65 65 65 65 65 66 67 67 68 68 69 70 70 71 71 72 72 73 73 74 74 74 75 75
104 103 102 100 99 98 97 96 95 94 92 91 90 89 88 88 87 87 87 86 86 86 87 87 88 88 88 89 89 89 89 89 88 88 86 85 84 82 80 78 76 74 73 72 71 70 70 70 69 68 67 67 68 68 68 67 67 66 66 66 66 66 66 66 66 67 67 68 68 69 69 70 70 71 72 72 73 73 73 74 74 75 75 75 76 77
100 99 97 96 95 94 93 92 90 89 88 87 86 85 85 84 84 83 83 82 82 83 83 84 84 84 84 85 85 86 87 88 88 88 87 86 85 84 82 80 78 76 74 72 70 69 69 68 67 66 66 66 66 67 67 68 68 67 67 67 67 67 67 67 68 68 69 69 70 70 71 71 72 72 73 73 74 74 75 75 75 76 76 77 78 78
97 96 95 94 92 91 90 89 88 87 86 85 84 83 82 82 81 81 80 80 80 80 81 81 81 81 81 81 81 82 84 85 86 86 86 86 86 85 84 82 81 79 77 74 72 71 69 69 68 67 66 66 67 68 69 69 69 69 69 69 69 69 69 69 69 70 70 70 71 71 72 73 73 74 74 74 75 75 76 76 77 78 78 80 81 82
96 95 94 93 92 90 89 88 87 86 85 84 84 83 82 81 81 80 79 79 78 78 79 79 80 80 80 79 79 79 79 80 80 81 83 84 86 86 86 85 84 82 81 78 76 74 73 71 70 69 68 68 68 69 70 70 70 71 70 70 70 70 70 70 71 71 71 72 72 73 73 74 74 75 76 76 77 77 78 79 80 81 82 84 85 87
96 96 95 94 93 92 90 89 88 87 86 85 85 84 83 82 81 80 79 78 78 77 77 78 78 79 80 80 79 78 77 75 75 75 76 79 82 84 86 87 87 86 85 83 82 80 78 76 74 72 71 71 71 71 71 72 72 72 72 72 72 72 72 72 72 72 73 73 74 74 75 76 76 77 78 79 80 81 82 83 85 86 88 89 90 90
98 97 97 96 95 93 92 91 90 89 88 87 87 86 84 83 82 81 80 79 78 77 76 76 77 78 80 81 82 81 78 75 72 70 71 73 76 79 82 84 86 87 88 88 87 86 85 83 81 79 77 76 75 75 75 75 75 75 75 75 75 75 74 74 75 75 76 76 77 78 78 79 80 81 82 84 85 86 88 89 90 91 92 93 93 93
100 100 99 98 97 96 95 94 92 91 91 90 89 88 87 85 84 83 81 80 78 77 76 76 76 77 79 81 84 85 83 78 73 69 68 69 72 74 77 79 81 83 86 88 89 89 89 89 88 87 85 84 83 83 82 82 82 81 81 81 81 80 80 79 80 80 81 81 82 83 84 86 87 88 89 90 91 92 93 94 94 94 95 94 94 93
102 102 101 100 99 98 97 96 95 94 93 92 91 90 89 87 86 84 83 81 80 78 76 76 75 76 77 81 84 87 87 83 77 72 69 69 71 72 74 75 76 78 80 82 85 87 88 90 90 91 90 90 90 90 90 90 90 90 90 90 89 88 88 87 87 88 88 89 90 91 92 92 93 94 94 95 95 96 96 96 96 95 95 94 94 93
104 104 103 102 102 101 100 99 98 96 95 94 93 92 91 89 88 86 85 83 81 79 78 76 75 75 76 79 82 86 88 86 82 77 73 71 71 73 74 75 75 75 76 77 78 80 82 84 86 88 89 91 92 92 93 94 94 95 95 95 95 95 94 94 94 94 94 95 95 96 96 97 97 97 97 97 97 96 96 96 95 95 94 93 92 92
106 105 105 104 103 103 102 101 100 98 97 96 95 94 93 91 89 88 86 85 83 81 80 78 77 76 76 77 80 83 86 86 84 81 77 75 74 74 74 75 75 76 75 75 75 76 77 78 80 82 83 85 87 88 90 91 92 94 95 96 96 96 95 95 95 96 96 96 96 97 97 97 97 97 96 96 95 95 94 94 93 93 92 92 91 91
107 106 106 105 105 104 103 102 101 100 99 98 97 95 94 92 91 89 88 86 85 84 82 81 79 78 77 78 79 81 83 84 84 82 80 77 76 75 75 75 76 76 76 75 75 75 76 76 77 78 79 80 81 82 83 85 86 88 89 90 91 91 91 91 92 92 93 93 93 94 94 94 94 94 94 93 93 93 92 92 92 92 91 91 90 90
108 108 107 106 105 105 104 103 102 101 100 99 98 97 95 94 92 91 89 88 87 85 84 83 82 81 80 79 79 80 81 82 82 81 80 78 77 76 75 75 76 76 75 75 75 75 76 77 77 78 79 79 80 81 81 82 83 83 84 85 85 86 86 86 87 87 88 89 90 90 91 91 92 92 92 92 91 91 91 91 91 91 91 90 90 89
110 109 108 107 106 105 105 104 103 102 101 100 99 98 96 95 94 92 90 89 88 87 86 85 84 83 82 81 81 80 80 80 80 80 79 78 77 76 75 75 75 75 74 74 74 74 74 75 76 78 79 80 81 82 83 83 83 83 83 84 84 84 84 85 85 86 87 87 88 89 90 90 91 91 91 91 91 91 91 91 90 90 90 89 89 88
111 110 109 108 107 106 105 104 103 102 102 101 100 99 98 96 95 93 92 90 89 88 87 86 86 85 84 83 83 82 81 81 80 80 79 78 77 76 75 75 74 74 73 73 72 72 72 72 73 75 76 77 79 81 83 83 83 84 84 84 85 86 87 87 87 87 88 88 89 89 90 90 91 91 91 91 91 91 90 90 90 89 89 88 87 86
112 111 110 109 108 107 106 105 104 103 102 101 100 100 99 97 96 94 93 91 90 89 88 87 86 86 85 85 84 83 82 82 81 80 79 78 77 76 75 74 74 73 72 72 71 71 70 69 70 70 72 73 75 77 79 80 81 82 83 84 85 86 87 88 88 88 88 89 89 89 90 90 90 90 90 90 90 89 89 88 88 87 87 86 85 84
113 112 111 110 109 108 107 106 105 104 103 102 101 100 99 98 97 95 94 92 91 90 89 88 87 86 86 86 85 84 83 83 82 81 80 79 78 77 75 75 74 73 72 71 70 69 69 68 67 67 67 68 70 72 73 75 77 78 80 81 82 84 85 85 86 86 87 88 88 88 88 88 88 88 88 88 88 87 87 86 86 85 84 84 83 81
114 113 112 111 110 109 108 107 106 105 104 103 102 101 100 99 98 96 95 94 92 91 90 89 87 87 86 86 86 85 84 83 82 81 80 79 78 77 76 75 74 73 72 71 70 69 68 67 66 65 64 64 65 66 67 68 70 72 74 76 77 79 80 81 82 83 84 85 85 85 85 85 86 86 86 85 85 84 84 83 83 82 81 80 79 78
115 114 113 112 111 110 109 108 107 106 105 104 103 102 101 100 98 97 96 95 93 92 91 90 89 88 87 87 86 85 85 84 83 82 81 80 79 77 76 75 74 73 72 71 70 69 68 67 65 64 63 63 63 63 63 63 64 65 67 69 71 72 74 76 77 78 78 79 80 81 81 82 82 82 82 82 82 81 81 80 79 78 77 76 75 74
116 115 114 113 112 111 110 109 108 107 106 105 104 103 102 101 99 98 97 96 94 93 92 91 90 89 88 87 87 86 85 84 84 83 82 81 80 78 77 75 74 73 71 70 69 68 68 66 65 64 63 63 62 62 61 60 60 61 62 63 65 66 68 69 70 71 72 73 74 75 76 77 77 78 78 78 78 77 77 76 75 74 73 72 71 70
116 115 114 113 112 111 110 109 108 107 106 105 104 104 103 101 100 99 98 97 95 94 93 92 91 90 89 89 88 87 86 85 84 83 83 82 81 79 78 76 74 72 71 70 68 67 67 66 65 64 64 63 62 62 61 60 60 60 60 61 61 62 63 64 64 65 66 67 69 70 71 71 72 73 73 73 73 73 72 72 71 70 69 68 67 66
116 115 114 113 112 111 110 109 108 107 106 106 105 104 103 102 101 99 98 97 96 95 94 93 92 91 90 90 89 88 87 86 85 84 83 82 82 80 79 77 75 73 71 69 68 66 65 65 64 64 63 63 62 62 61 61 60 60 60 60 60 61 61 61 62 62 63 64 65 66 66 67 68 68 68 69 69 69 68 67 67 66 65 64 64 63
116 115 114 113 112 111 110 109 108 107 106 106 105 104 103 102 101 100 99 98 97 96 95 93 92 91 91 90 90 89 88 87 86 85 84 83 82 81 80 79 77 74 72 70 68 66 64 64 63 63 63 62 62 61 61 61 61 60 60 61 61 61 61 61 61 61 62 62 63 64 64 65 65 65 65 65 65 65 65 64 63 63 62 61 61 61
Wind_Direction
278 279 280 281 283 283 284 285 285 286 286 286 286 286 286 285 285 284 283 282 282 281 281 281 282 282 283 284 285 286 288 289 291 292 293 294 295 296 296 297 297 297 297 297 297 297 297 298 298 298 298 297 297 297 297 297 297 297 297 297 296 296 296 296 297 298 299 300 302 304 305 307 308 310 311 312 312 313 313 314 315 316 317 317 318 318
281 282 282 283 284 284 284 285 285 285 285 286 285 284 284 283 282 281 280 279 279 279 279 280 281 282 283 284 285 286 287 289 290 291 292 293 294 295 295 296 296 296 296 296 296 296 296 297 297 296 296 296 296 296 296 296 296 296 295 295 295 295 295 295 296 297 298 300 302 304 305 307 308 309 310 311 311 312 313 314 315 315 316 316 317 317
283 283 283 283 283 283 283 284 284 284 283 283 282 281 280 279 278 278 278 277 278 278 279 279 281 282 283 284 285 286 287 288 289 290 291 292 293 294 294 295 295 295 295 295 295 295 295 295 295 295 295 294 294 294 294 294 294 294 293 293 293 294 294 295 296 297 299 300 302 304 305 306 307 308 309 310 311 311 312 313 314 314 315 315 316 316
282 281 281 281 281 281 281 281 281 280 280 279 278 278 277 277 276 276 277 277 277 278 279 280 281 282 283 284 285 286 287 288 289 290 291 291 292 293 293 294 294 295 295 294 294 294 294 294 294 293 293 292 292 292 292 292 292 292 292 292 292 292 293 294 296 297 299 301 302 303 305 306 307 308 308 309 310 311 312 313 313 314 314 314 315 315
278 278 278 278 278 278 278 278 277 277 277 276 276 276 276 276 276 276 277 277 278 279 280 281 282 283 284 285 286 287 287 288 289 289 290 291 291 292 293 293 294 294 294 294 293 293 293 293 293 292 291 291 291 291 290 290 290 290 290 291 291 292 293 294 296 297 299 301 302 303 304 305 306 307 308 309 309 310 311 312 312 313 313 313 314 315
275 275 275 275 275 275 275 276 275 275 276 276 276 276 276 276 277 277 278 278 279 280 280 281 282 283 284 285 286 286 287 288 288 289 290 291 291 292 293 293 293 293 293 293 293 293 292 292 292 291 290 290 290 289 289 289 289 289 289 290 290 291 293 294 296 298 299 301 302 303 304 305 306 306 307 308 309 310 310 311 311 311 312 312 313 314
274 274 274 274 275 275 275 275 275 275 275 276 276 277 277 277 278 278 279 279 280 280 281 282 283 283 284 285 286 286 287 288 288 289 290 291 291 292 293 293 293 293 293 292 292 292 292 292 291 291 290 289 289 288 288 288 288 288 289 289 291 292 293 295 296 298 299 300 301 302 303 304 305 306 307 308 308 309 309 310 310 310 311 312 313 314
274 274 274 275 275 275 275 275 275 275 276 276 276 277 277 278 278 279 279 280 280 281 281 282 283 283 284 285 285 286 287 288 288 289 290 291 292 292 293 293 293 293 292 292 292 292 292 292 291 290 289 289 288 288 287 287 287 288 289 290 291 292 293 295 296 298 299 300 301 301 303 303 304 305 306 307 307 308 308 309 309 310 310 311 312 314
274 274 274 275 275 275 275 275 275 276 276 276 276 277 277 278 278 279 279 280 280 281 281 282 283 283 284 284 285 286 287 287 288 289 290 291 292 292 293 293 292 292 292 292 292 292 292 291 290 289 288 288 287 287 287 287 287 288 288 289 291 292 293 295 296 297 298 299 300 301 302 303 304 304 305 306 306 307 307 308 308 309 310 311 313 314
273 274 274 275 275 275 275 275 275 276 276 276 276 276 277 277 278 278 279 280 280 281 281 282 283 283 284 285 285 286 287 288 288 289 290 291 292 292 292 292 292 292 292 292 292 291 291 290 289 288 287 287 287 286 286 287 287 287 288 289 290 291 293 294 295 296 297 298 299 300 301 302 303 304 304 305 305 306 306 307 308 309 310 311 313 315
273 274 274 274 275 275 275 275 275 276 276 276 276 276 276 277 277 278 278 279 280 280 281 282 283 283 284 285 286 286 287 288 289 289 290 291 292 292 292 291 291 291 291 291 291 291 290 289 288 287 287 286 286 286 286 286 287 287 288 289 290 291 292 293 294 295 296 297 298 299 300 301 302 303 303 304 304 305 305 307 308 309 310 312 314 316
273 273 274 274 274 275 275 275 275 275 275 276 276 276 276 277 277 277 278 279 279 280 281 282 283 283 284 285 286 287 288 288 289 290 290 291 291 291 291 291 291 291 291 291 291 291 290 289 288 287 286 286 286 286 286 286 286 287 287 288 289 291 292 293 294 295 296 297 298 299 300 301 301 302 302 303 303 304 305 307 308 309 311 313 315 317
273 273 274 274 274 274 275 275 275 275 275 275 276 276 276 277 277 278 278 279 280 281 282 283 283 284 285 286 286 287 288 289 289 289 290 290 290 290 290 290 290 291 291 291 291 290 290 288 287 286 286 286 285 285 285 286 286 286 287 288 289 290 291 292 293 294 295 296 298 298 299 300 300 301 301 302 303 304 305 307 308 310 312 313 316 318
273 273 274 274 274 274 275 275 275 275 276 276 276 277 277 278 279 279 280 280 281 282 283 283 284 285 285 286 287 287 288 288 289 289 289 289 289 289 289 290 290 290 291 291 291 290 289 288 288 287 286 286 285 285 285 285 286 286 287 288 289 290 291 292 293 294 295 296 297 298 299 299 300 300 301 302 303 304 306 307 309 311 312 314 316 318
274 274 274 274 275 275 275 276 276 276 277 277 278 278 279 279 280 281 281 282 283 283 284 285 285 285 286 286 287 287 288 288 288 289 289 289 289 289 289 290 290 290 291 291 291 290 289 289 288 287 286 286 285 285 285 285 286 287 287 288 289 290 291 292 293 294 295 296 297 297 298 298 299 300 301 302 304 305 307 308 310 311 313 315 317 318
275 275 275 276 276 276 277 277 277 278 278 279 280 280 281 281 282 282 283 284 284 285 285 286 286 286 286 287 287 287 288 288 288 288 289 289 289 289 290 290 290 290 291 291 290 290 289 289 288 287 287 286 286 285 285 285 286 287 288 289 290 291 292 292 293 294 295 295 296 297 297 298 299 300 302 303 304 306 307 309 310 312 314 315 316 316
277 277 277 278 278 279 279 279 280 280 281 281 282 282 282 283 284 284 285 285 285 286 286 286 286 286 287 287 287 287 287 288 288 288 288 288 289 289 290 290 290 291 291 291 290 290 289 289 288 287 286 286 286 285 285 286 286 287 288 289 290 291 292 292 293 293 294 295 296 296 297 299 300 301 302 304 305 306 308 309 311 313 314 314 314 314
279 279 280 280 281 281 282 282 282 283 283 283 283 284 284 284 285 285 285 286 286 286 286 286 286 287 287 287 287 287 287 287 287 288 288 288 288 289 290 290 290 291 291 291 291 290 289 289 288 287 286 286 286 285 286 286 287 288 289 289 290 291 291 292 293 293 294 295 296 297 298 299 301 302 303 304 305 307 308 310 311 312 313 313 312 312
280 281 282 282 282 283 283 283 284 284 284 284 285 285 285 285 286 286 286 286 286 286 286 286 287 287 287 287 287 287 287 287 287 287 287 287 288 288 289 289 289 290 290 290 290 291 290 290 289 288 287 287 286 286 287 287 288 288 289 290 290 291 292 292 293 294 295 296 297 298 299 300 301 302 303 304 305 307 308 309 310 311 310 310 310 309
281 281 282 282 282 283 283 283 284 284 284 284 285 285 285 285 286 286 286 286 286 286 286 286 287 287 287 287 287 287 287 287 287 287 287 287 287 288 288 288 288 288 289 289 290 290 290 290 290 289 289 288 288 288 288 289 289 290 290 291 292 292 293 293 294 295 297 298 298 299 299 300 301 302 303 304 305 307 308 308 308 308 308 308 307 307
280 280 280 281 281 281 282 282 283 283 283 284 284 284 284 285 285 285 285 285 286 286 286 286 286 286 286 286 286 286 286 286 286 286 286 286 286 286 286 286 287 287 287 288 288 288 288 289 289 289 289 289 290 290 290 290 291 291 292 292 293 293 294 294 295 296 297 297 298 298 299 299 300 301 303 304 305 306 306 306 306 306 306 305 305 305
278 279 279 279 280 280 280 281 281 282 282 283 283 283 283 284 284 284 284 285 285 285 285 285 285 285 285 285 285 285 285 285 285 285 285 285 285 285 285 285 285 285 286 286 286 286 286 287 287 287 287 288 289 289 289 290 290 291 291 292 292 292 293 293 294 295 296 296 297 297 298 299 300 302 303 303 304 304 304 303 303 303 303 303 303 303
277 277 278 278 278 278 279 279 280 280 281 281 281 282 282 283 283 283 283 283 283 283 283 284 284 284 284 284 284 284 284 284 284 284 284 284 283 284 284 284 284 284 284 284 285 285 285 285 285 286 286 287 287 288 288 288 289 289 290 290 291 291 292 292 293 294 295 295 296 297 298 299 300 301 301 301 301 301 301 301 301 301 301 301 302 302
276 276 276 276 277 277 277 277 278 278 278 279 279 280 281 281 281 282 282 282 282 282 282 282 282 282 282 282 282 282 282 282 282 282 282 282 282 282 283 283 283 283 283 283 283 283 283 284 284 285 285 286 286 287 287 287 288 288 289 289 290 290 291 291 292 293 294 296 297 297 298 299 299 299 299 299 298 298 298 298 299 299 299 300 300 301
274 274 275 275 275 275 275 276 276 276 276 277 277 278 278 279 279 280 280 280 281 281 281 281 280 280 280 280 280 280 281 281 281 281 281 281 281 281 282 282 282 281 281 282 282 282 282 282 283 284 285 285 285 286 286 287 287 288 288 289 289 290 290 291 292 294 295 296 297 297 297 297 297 296 296 296 296 296 296 296 297 297 298 298 299 299
273 273 273 274 274 274 274 275 275 275 275 276 276 276 276 277 277 277 277 278 278 278 278 278 278 279 279 279 279 279 279 280 280 280 280 280 280 281 281 281 281 280 280 280 281 281 281 281 282 283 283 284 284 285 285 286 286 287 287 288 289 290 290 292 293 294 295 295 295 295 295 294 294 294 293 294 294 294 294 295 295 296 296 297 298 298
273 273 273 273 274 274 274 274 275 275 275 275 275 276 276 276 276 276 275 275 275 275 274 275 275 275 276 277 277 278 278 279 279 279 279 279 280 280 280 280 280 280 280 280 280 280 281 281 282 282 283 283 284 284 285 285 286 286 287 288 289 290 290 291 292 293 293 293 292 292 292 291 291 291 291 292 292 293 293 293 294 295 295 296 296 297
273 273 274 274 274 274 274 275 275 275 275 275 276 276 275 275 275 275 274 274 273 272 272 271 271 271 271 272 273 274 276 276 277 278 278 278 279 279 280 280 281 281 281 281 281 281 282 282 282 283 283 284 284 284 285 285 285 286 287 288 288 289 289 290 290 290 290 290 289 289 289 289 289 290 290 290 291 291 292 292 293 293 294 295 295 296
273 273 274 274 274 274 274 275 275 275 275 276 276 276 275 275 275 275 274 274 273 272 271 270 269 268 267 267 268 269 271 272 274 275 276 277 277 278 279 280 280 281 281 282 282 282 282 283 283 283 284 284 284 284 284 284 285 285 286 286 287 287 287 287 287 287 287 287 287 287 287 287 288 288 289 289 290 290 291 291 292 292 293 294 294 295
273 273 273 274 274 274 274 275 275 275 275 275 275 275 275 275 275 275 274 274 273 273 272 271 270 268 267 266 265 265 265 267 268 270 272 274 275 276 277 278 279 279 279 280 281 281 281 282 282 282 282 283 282 282 282 282 283 283 283 284 284 284 284 284 284 284 285 285 285 286 286 286 287 287 288 288 289 289 289 290 291 291 292 293 293 294
273 273 273 273 273 273 273 274 274 274 274 275 275 275 275 275 274 274 274 274 273 273 272 272 271 270 268 267 265 264 263 262 263 265 267 269 271 273 274 276 277 277 277 277 278 278 279 279 279 279 279 279 279 279 279 279 280 280 280 281 281 281 282 282 283 283 283 284 284 284 285 285 286 286 287 287 287 288 289 289 290 291 291 292 293 294
272 272 272 272 272 272 272 273 273 273 273 274 274 274 274 274 274 274 274 274 273 273 273 273 272 271 270 268 267 265 263 262 261 261 261 262 265 267 269 271 273 274 275 275 275 275 276 276 276 276 276 276 276 276 276 277 277 278 278 279 279 280 280 281 281 282 282 283 283 283 284 284 284 285 285 286 286 287 288 288 289 290 291 292 293 294
271 271 271 271 271 271 271 271 272 272 272 272 272 272 273 273 273 273 273 273 273 273 273 273 273 273 272 271 269 267 266 264 263 261 260 259 259 260 262 264 266 268 270 272 273 273 274 274 275 275 275 274 274 274 275 275 276 276 277 277 278 278 279 280 280 280 281 281 282 282 282 283 283 284 284 285 285 286 287 288 289 290 291 292 294 295
270 270 270 270 270 270 270 270 270 271 271 271 271 271 271 272 272 272 272 272 272 272 273 273 273 273 273 273 272 270 268 267 265 264 262 260 259 258 258 258 259 261 263 265 267 269 270 271 272 272 273 273 273 273 273 274 275 275 275 276 276 277 278 278 279 279 280 280 280 281 281 281 282 283 283 284 285 286 287 288 289 290 292 293 294 295
270 270 270 270 270 270 270 270 269 269 269 269 270 270 270 270 270 271 271 271 271 271 271 271 272 272 272 273 273 272 271 270 268 266 265 263 262 260 259 258 257 257 258 259 261 262 264 266 267 268 269 270 271 271 272 272 273 273 274 274 275 275 276 277 277 278 278 279 279 279 280 281 281 282 283 284 285 286 287 289 290 291 292 293 294 295
269 269 269 269 269 269 269 269 269 269 269 268 268 268 269 269 269 269 270 270 270 270 270 270 270 270 270 271 272 272 273 272 271 269 267 266 264 263 262 261 259 258 257 257 257 258 259 261 262 264 265 266 268 269 269 270 271 272 272 273 273 274 275 275 276 276 277 278 278 279 280 281 282 283 284 285 286 287 288 289 290 291 292 292 293 294
269 269 269 269 269 269 269 268 268 268 268 268 268 268 268 267 268 268 268 268 269 269 269 268 268 268 268 268 269 271 272 274 273 272 270 268 267 266 265 264 263 262 260 259 258 258 258 258 259 260 261 263 264 265 267 268 269 270 271 271 272 273 273 274 275 276 277 277 278 279 280 281 282 283 284 285 286 287 287 288 289 290 291 291 292 293
268 269 269 269 269 269 268 268 268 268 268 267 267 267 267 267 267 267 267 267 267 267 267 267 267 266 266 265 266 268 270 273 274 274 272 271 269 269 268 267 266 265 264 263 262 261 260 260 259 260 260 261 262 263 264 266 267 268 269 270 271 272 273 273 274 275 276 277 278 279 280 281 282 282 283 284 285 286 287 287 288 289 290 290 291 292
267 268 268 268 268 268 268 268 268 268 267 267 267 267 267 266 266 266 266 266 266 266 266 266 265 265 265 264 264 266 268 270 272 273 273 272 271 270 270 269 269 268 268 267 266 265 264 263 262 262 262 262 262 262 263 264 265 267 268 269 270 270 271 272 273 274 275 276 277 278 279 280 281 282 282 283 284 285 286 287 287 288 289 290 290 291
266 267 267 267 268 268 268 268 268 268 268 267 267 267 267 266 266 266 265 265 265 265 265 265 264 264 264 264 264 265 266 268 270 271 272 272 271 271 270 270 270 270 270 269 268 268 267 266 266 265 265 265 265 265 265 265 266 267 267 268 269 270 271 272 273 274 275 275 276 277 278 279 280 281 282 282 283 284 285 286 287 287 288 289 290 291
265 266 266 266 267 267 267 267 268 268 268 268 268 267 267 267 266 266 265 265 265 264 264 264 264 264 264 263 264 264 265 266 268 269 270 270 270 270 270 270 270 270 270 270 270 269 269 268 268 268 268 268 268 268 268 268 268 268 269 270 270 271 272 272 273 274 274 275 276 277 278 278 279 280 281 282 283 283 284 285 286 287 288 288 289 290
264 264 265 265 265 266 266 266 267 267 267 267 267 267 267 267 267 266 266 265 265 265 264 264 264 264 263 263 263 264 264 265 266 267 268 269 269 269 269 269 270 270 270 270 270 270 269 269 269 269 269 269 269 269 269 269 270 270 271 271 272 272 273 273 273 274 275 275 276 277 277 278 279 280 281 281 282 283 284 284 285 286 287 287 288 289
263 263 263 264 264 264 265 265 265 266 266 266 266 267 267 267 267 267 266 266 265 265 265 264 264 264 264 264 264 264 264 265 265 266 267 267 268 268 268 269 269 269 270 270 270 270 270 270 269 269 269 269 269 269 269 270 270 270 271 271 272 272 273 273 273 274 274 275 275 276 277 278 278 279 280 281 281 282 283 284 284 285 286 287 287 288
262 262 262 262 263 263 263 263 264 264 264 265 265 265 266 266 266 266 266 266 266 265 265 265 264 264 264 264 264 264 264 265 265 265 266 267 267 267 268 268 268 269 269 269 270 270 270 270 270 269 269 269 269 269 269 269 270 270 270 271 271 271 271 272 273 273 274 274 275 275 276 277 278 278 279 280 281 281 282 283 283 284 285 286 287 287
260 261 261 261 261 261 261 262 262 262 263 263 263 264 264 264 265 265 265 265 265 265 265 265 264 264 264 264 264 264 265 265 265 265 266 266 266 267 267 267 268 268 268 269 269 269 270 270 270 270 270 269 269 269 269 269 269 270 270 270 270 270 271 271 272 272 273 273 274 274 275 276 277 277 278 279 280 280 281 282 283 283 284 285 286 287
259 260 260 260 260 260 260 260 261 261 261 261 262 262 262 263 263 263 264 264 264 264 264 264 264 264 264 264 264 265 265 265 265 266 266 266 266 266 266 267 267 267 268 268 268 269 269 269 270 270 270 270 269 269 269 269 269 269 269 269 269 270 270 270 271 271 272 272 273 273 274 275 276 276 277 278 279 279 280 281 282 283 283 284 285 286
259 259 259 259 259 259 259 259 259 260 260 260 260 261 261 261 262 262 262 263 263 263 263 263 263 263 263 264 264 264 265 265 266 266 266 266 266 266 266 266 266 267 267 267 267 268 268 268 268 269 269 269 269 269 269 269 269 269 269 269 269 269 269 270 270 270 271 271 272 273 273 274 275 275 276 277 278 278 279 280 281 282 283 284 285 286
258 258 258 258 258 258 258 258 258 258 259 259 259 260 260 260 260 261 261 261 261 262 262 262 262 263 263 263 263 264 264 265 266 266 267 267 267 267 267 267 267 266 266 266 266 267 267 267 267 267 268 268 268 268 269 269 269 269 269 269 269 270 270 270 270 270 271 271 272 272 273 273 274 275 275 276 277 278 279 280 281 282 282 283 284 285
258 258 257 257 257 257 257 257 258 258 258 258 258 259 259 259 259 259 260 260 260 260 261 261 261 262 262 263 263 264 264 265 265 266 267 267 268 268 268 268 267 267 267 266 266 266 266 266 266 266 266 267 267 268 268 268 268 268 269 269 270 270 270 271 271 271 272 272 272 272 273 273 274 275 275 276 277 278 279 279 280 281 282 283 284 284
257 257 257 257 257 257 257 257 257 257 257 257 257 258 258 258 258 259 259 259 259 259 259 260 260 261 262 262 263 263 264 264 264 265 266 267 268 268 269 269 269 268 268 267 266 266 265 265 265 265 265 265 266 266 267 267 268 268 269 269 269 270 271 271 272 272 273 273 273 273 273 274 274 275 276 276 277 278 278 279 280 281 282 283 283 284
257 257 257 257 256 256 256 256 256 256 256 256 257 257 257 257 258 258 258 258 258 258 258 259 259 260 261 261 262 263 263 263 264 264 265 266 267 268 268 269 269 269 269 268 268 267 266 265 265 265 265 265 265 265 266 267 267 268 268 269 269 270 271 272 273 273 273 273 274 274 274 274 275 275 276 276 277 278 278 279 280 281 282 282 283 283
Height
10620 10620 10619 10619 10618 10617 10616 10616 10617 10616 10614 10615 10615 10615 10616 10616 10616 10616 10618 10618 10619 10619 10621 10621 10621 10620 10619 10618 10618 10618 10618 10618 10617 10616 10616 10616 10616 10615 10614 10613 10613 10611 10609 10606 10604 10601 10600 10600 10600 10599 10598 10596 10594 10593 10593 10593 10592 10591 10590 10589 10589 10588 10587 10586 10585 10584 10583 10583 10581 10581 10579 10578 10577 10576 10575 10574 10573 10571 10569 10568 10566 10564 10563 10561 10559 10558
10613 10613 10613 10612 10612 10611 10610 10610 10611 10611 10609 10609 10610 10611 10611 10612 10612 10613 10614 10614 10615 10616 10616 10616 10616 10615 10614 10613 10613 10613 10613 10613 10613 10613 10612 10613 10611 10610 10609 10609 10608 10607 10605 10603 10600 10597 10596 10596 10596 10595 10594 10592 10591 10589 10588 10588 10587 10586 10586 10584 10583 10583 10582 10581 10580 10579 10579 10578 10578 10577 10576 10574 10574 10573 10571 10570 10569 10567 10566 10564 10563 10561 10559 10558 10556 10554
10605 10605 10605 10605 10606 10606 10605 10606 10606 10606 10606 10606 10606 10607 10608 10608 10608 10609 10609 10609 10609 10610 10611 10611 10610 10609 10609 10608 10608 10608 10608 10609 10609 10609 10609 10609 10607 10605 10604 10604 10604 10603 10601 10599 10596 10593 10592 10592 10592 10591 10590 10588 10587 10585 10584 10583 10583 10582 10581 10579 10578 10578 10576 10576 10575 10574 10574 10573 10573 10572 10571 10571 10569 10569 10568 10566 10565 10564 10562 10561 10559 10558 10556 10554 10553 10551
10600 10600 10599 10601 10601 10601 10601 10602 10602 10603 10603 10603 10603 10603 10604 10604 10604 10604 10604 10604 10604 10604 10604 10604 10604 10604 10603 10603 10603 10603 10603 10604 10604 10604 10604 10604 10603 10600 10599 10599 10599 10598 10597 10594 10591 10589 10588 10588 10588 10587 10586 10584 10583 10581 10580 10579 10578 10577 10576 10574 10574 10573 10571 10571 10570 10570 10569 10569 10568 10568 10566 10566 10565 10564 10563 10563 10561 10560 10558 10557 10556 10554 10552 10551 10549 10548
10597 10596 10596 10597 10598 10598 10598 10599 10599 10599 10599 10599 10599 10599 10599 10599 10599 10599 10599 10599 10599 10599 10598 10599 10599 10598 10598 10597 10596 10596 10597 10598 10598 10599 10599 10599 10597 10596 10595 10594 10593 10593 10591 10589 10587 10584 10584 10583 10583 10582 10581 10580 10579 10577 10576 10574 10573 10572 10571 10569 10569 10568 10567 10566 10566 10566 10565 10564 10563 10563 10562 10561 10560 10559 10559 10558 10557 10556 10554 10553 10551 10550 10548 10547 10545 10544
10593 10593 10593 10594 10594 10594 10594 10595 10595 10594 10594 10594 10594 10594 10594 10594 10594 10594 10594 10594 10594 10594 10593 10593 10593 10593 10592 10591 10590 10591 10591 10592 10592 10593 10593 10592 10591 10591 10590 10589 10588 10587 10586 10584 10581 10579 10579 10578 10578 10577 10576 10575 10574 10573 10571 10569 10568 10566 10565 10564 10563 10563 10563 10562 10561 10561 10561 10559 10559 10558 10557 10556 10556 10554 10554 10553 10553 10551 10550 10549 10548 10546 10544 10543 10541 10540
10587 10588 10589 10589 10589 10589 10590 10590 10590 10590 10590 10589 10588 10588 10588 10588 10589 10589 10588 10588 10588 10588 10588 10588 10588 10587 10586 10586 10585 10586 10586 10586 10586 10586 10586 10586 10585 10585 10584 10583 10582 10581 10579 10578 10576 10574 10574 10573 10573 10571 10571 10570 10569 10568 10566 10564 10563 10562 10560 10559 10558 10558 10558 10558 10557 10556 10556 10555 10554 10554 10553 10552 10551 10550 10549 10549 10548 10547 10546 10544 10543 10542 10541 10539 10538 10536
10581 10582 10583 10584 10584 10584 10584 10584 10584 10585 10585 10584 10584 10583 10583 10582 10582 10582 10582 10583 10583 10583 10583 10582 10582 10581 10581 10581 10581 10581 10581 10581 10581 10581 10579 10579 10579 10579 10578 10577 10576 10575 10574 10572 10571 10569 10568 10568 10567 10566 10566 10565 10564 10563 10561 10560 10558 10557 10556 10555 10554 10553 10553 10553 10553 10552 10551 10551 10550 10549 10549 10548 10547 10546 10545 10544 10544 10543 10542 10541 10539 10538 10537 10536 10534 10533
10575 10576 10576 10577 10578 10578 10578 10577 10578 10579 10579 10579 10578 10578 10577 10576 10576 10576 10576 10576 10576 10576 10576 10576 10576 10575 10574 10574 10575 10576 10576 10575 10574 10574 10573 10573 10573 10572 10571 10571 10569 10569 10568 10566 10565 10564 10564 10563 10562 10561 10560 10559 10559 10558 10557 10555 10554 10553 10552 10551 10550 10549 10549 10549 10548 10548 10547 10546 10546 10545 10544 10544 10543 10542 10541 10541 10539 10539 10538 10536 10536 10534 10533 10532 10530 10529
10568 10569 10569 10570 10571 10572 10572 10571 10570 10571 10573 10573 10573 10571 10571 10571 10571 10569 10569 10569 10569 10570 10571 10571 10569 10569 10568 10568 10569 10570 10571 10569 10568 10567 10567 10567 10566 10565 10564 10564 10564 10563 10562 10561 10560 10559 10559 10558 10557 10556 10555 10554 10554 10553 10552 10551 10549 10548 10548 10547 10546 10546 10545 10544 10544 10544 10543 10542 10541 10541 10541 10540 10539 10538 10538 10536 10536 10534 10534 10533 10531 10530 10529 10528 10526 10525
10561 10561 10563 10563 10563 10563 10564 10564 10563 10563 10564 10566 10565 10564 10564 10565 10565 10565 10564 10563 10563 10563 10564 10564 10563 10563 10563 10563 10563 10564 10564 10564 10563 10562 10562 10561 10561 10559 10558 10558 10558 10557 10556 10555 10555 10554 10554 10553 10551 10551 10550 10549 10549 10548 10547 10546 10544 10544 10543 10542 10542 10541 10541 10541 10540 10539 10539 10538 10538 10537 10536 10536 10535 10534 10533 10533 10531 10531 10529 10529 10528 10526 10525 10524 10522 10521
10553 10553 10554 10555 10555 10555 10556 10556 10556 10556 10557 10558 10558 10557 10556 10557 10558 10559 10559 10557 10556 10557 10558 10557 10556 10556 10557 10557 10557 10558 10558 10556 10555 10555 10556 10556 10555 10554 10553 10553 10552 10551 10550 10549 10549 10549 10548 10548 10546 10546 10545 10544 10544 10543 10542 10541 10539 10539 10538 10538 10537 10537 10536 10536 10536 10535 10534 10534 10533 10533 10532 10532 10531 10530 10529 10528 10528 10526 10526 10524 10523 10522 10521 10519 10518 10516
10544 10546 10546 10547 10547 10547 10547 10548 10548 10548 10548 10549 10549 10549 10549 10549 10551 10553 10553 10551 10550 10550 10551 10551 10550 10549 10549 10551 10552 10552 10551 10549 10548 10548 10549 10550 10549 10548 10548 10547 10546 10545 10544 10544 10544 10543 10543 10542 10541 10540 10539 10539 10538 10538 10536 10536 10534 10534 10533 10533 10533 10533 10532 10532 10531 10531 10530 10529 10529 10528 10528 10527 10526 10526 10525 10524 10523 10523 10521 10520 10519 10518 10516 10515 10514 10512
10536 10537 10538 10539 10538 10538 10539 10539 10539 10539 10539 10540 10541 10542 10542 10543 10543 10544 10545 10544 10543 10543 10544 10544 10543 10542 10542 10543 10544 10545 10545 10544 10543 10542 10543 10543 10542 10542 10542 10541 10540 10539 10539 10539 10538 10537 10536 10536 10536 10534 10534 10534 10533 10532 10531 10530 10529 10528 10528 10528 10528 10528 10528 10527 10527 10526 10526 10525 10524 10524 10523 10523 10522 10521 10521 10520 10519 10518 10517 10516 10514 10513 10512 10511 10509 10508
10528 10529 10530 10530 10529 10530 10531 10531 10532 10532 10532 10533 10534 10535 10535 10535 10536 10536 10537 10537 10536 10536 10537 10537 10536 10535 10535 10535 10536 10538 10538 10538 10537 10536 10535 10535 10535 10536 10536 10536 10534 10533 10533 10533 10533 10531 10531 10531 10530 10529 10529 10528 10528 10526 10526 10524 10524 10523 10523 10523 10523 10523 10523 10523 10522 10522 10521 10521 10520 10519 10519 10518 10518 10517 10516 10515 10514 10513 10513 10511 10510 10509 10508 10506 10504 10503
10519 10520 10521 10521 10521 10521 10522 10523 10524 10524 10524 10524 10526 10527 10527 10527 10527 10528 10529 10529 10528 10528 10528 10528 10528 10528 10527 10527 10528 10531 10531 10531 10529 10529 10528 10528 10528 10528 10530 10530 10528 10526 10526 10527 10527 10526 10526 10525 10525 10524 10524 10523 10522 10521 10521 10519 10519 10519 10519 10518 10519 10519 10518 10518 10518 10518 10517 10516 10516 10515 10514 10514 10513 10512 10511 10511 10509 10509 10508 10507 10506 10504 10503 10501 10501 10499
10511 10511 10511 10511 10511 10511 10512 10513 10514 10515 10515 10515 10516 10516 10517 10518 10518 10519 10519 10519 10519 10519 10519 10519 10519 10520 10519 10519 10520 10522 10524 10524 10523 10521 10521 10521 10520 10521 10523 10524 10522 10520 10519 10520 10521 10521 10521 10520 10519 10519 10518 10518 10517 10516 10515 10514 10514 10514 10514 10514 10514 10514 10514 10514 10513 10513 10513 10512 10511 10511 10510 10509 10508 10508 10507 10506 10505 10504 10503 10502 10501 10499 10498 10498 10496 10496
10501 10501 10501 10500 10500 10500 10501 10502 10503 10503 10504 10505 10505 10506 10506 10508 10509 10509 10510 10510 10510 10509 10509 10510 10511 10511 10512 10512 10511 10513 10516 10518 10516 10514 10514 10514 10513 10514 10516 10517 10516 10514 10513 10513 10514 10514 10514 10514 10514 10514 10513 10513 10512 10511 10511 10510 10509 10509 10509 10509 10509 10509 10509 10509 10509 10508 10508 10508 10507 10506 10505 10504 10503 10503 10502 10501 10500 10499 10498 10497 10496 10495 10494 10493 10493 10493
10492 10491 10491 10491 10489 10489 10489 10491 10491 10491 10493 10493 10494 10495 10496 10497 10498 10499 10500 10500 10500 10500 10501 10501 10502 10502 10503 10503 10503 10504 10508 10509 10509 10508 10507 10507 10507 10508 10509 10510 10509 10508 10506 10506 10506 10507 10508 10508 10508 10508 10508 10508 10507 10506 10506 10506 10505 10505 10505 10505 10505 10504 10504 10504 10504 10504 10503 10503 10502 10501 10500 10499 10498 10498 10497 10496 10495 10494 10493 10492 10491 10491 10490 10490 10489 10489
10484 10484 10483 10482 10482 10481 10481 10480 10480 10481 10483 10483 10484 10485 10486 10486 10488 10488 10489 10489 10490 10491 10491 10493 10493 10493 10494 10495 10495 10496 10499 10501 10502 10501 10499 10500 10500 10501 10502 10504 10503 10502 10501 10500 10500 10501 10501 10501 10501 10501 10501 10501 10501 10501 10501 10500 10500 10499 10499 10499 10499 10499 10499 10499 10498 10498 10498 10497 10496 10496 10495 10494 10494 10493 10492 10491 10490 10489 10488 10488 10487 10487 10486 10486 10486 10485
10478 10477 10476 10476 10476 10476 10474 10473 10473 10473 10474 10474 10476 10476 10477 10478 10478 10479 10479 10480 10481 10481 10482 10483 10484 10484 10485 10487 10488 10488 10491 10493 10494 10493 10492 10493 10494 10494 10495 10497 10497 10496 10496 10495 10495 10496 10496 10496 10494 10494 10494 10494 10494 10494 10494 10494 10493 10493 10493 10493 10493 10493 10493 10493 10493 10493 10493 10492 10491 10491 10490 10489 10489 10488 10487 10486 10485 10484 10484 10483 10483 10483 10483 10483 10482 10481
10472 10470 10469 10469 10471 10471 10469 10468 10468 10468 10468 10468 10468 10468 10469 10469 10471 10471 10471 10472 10473 10474 10474 10476 10476 10476 10478 10479 10480 10481 10483 10486 10486 10485 10486 10487 10486 10486 10488 10491 10491 10491 10490 10489 10490 10491 10491 10491 10489 10489 10489 10489 10489 10488 10488 10488 10488 10488 10488 10488 10488 10488 10488 10488 10488 10488 10488 10487 10486 10486 10485 10484 10483 10482 10481 10481 10480 10480 10479 10479 10479 10479 10479 10478 10478 10477
10464 10463 10463 10463 10464 10464 10463 10463 10463 10463 10463 10463 10463 10462 10462 10463 10464 10464 10464 10464 10466 10467 10468 10468 10469 10470 10471 10473 10474 10475 10476 10478 10479 10479 10481 10481 10479 10479 10482 10484 10486 10485 10484 10484 10485 10486 10486 10485 10484 10483 10483 10483 10483 10483 10483 10483 10483 10483 10483 10483 10483 10483 10483 10483 10483 10483 10482 10482 10481 10480 10479 10478 10478 10477 10476 10476 10476 10476 10476 10476 10476 10475 10475 10474 10474 10473
10454 10455 10455 10455 10456 10456 10456 10456 10457 10457 10458 10459 10459 10458 10458 10458 10458 10458 10457 10458 10459 10459 10460 10462 10463 10464 10464 10466 10468 10468 10469 10470 10472 10474 10474 10474 10473 10473 10476 10478 10479 10479 10478 10479 10480 10481 10481 10479 10478 10478 10478 10478 10478 10478 10478 10477 10478 10478 10478 10478 10478 10478 10478 10478 10477 10477 10476 10476 10475 10474 10473 10473 10472 10472 10472 10472 10472 10472 10472 10472 10471 10471 10471 10470 10469 10469
10444 10445 10446 10446 10446 10447 10448 10448 10449 10449 10451 10453 10453 10454 10454 10454 10453 10453 10453 10452 10452 10452 10453 10454 10455 10456 10456 10459 10460 10461 10461 10463 10466 10468 10468 10467 10467 10468 10469 10471 10473 10473 10472 10473 10474 10476 10475 10474 10473 10473 10473 10472 10472 10472 10472 10471 10472 10472 10472 10472 10472 10472 10472 10472 10471 10471 10471 10470 10469 10469 10468 10468 10468 10468 10468 10468 10468 10468 10468 10468 10467 10467 10466 10466 10466 10464
10435 10436 10436 10437 10438 10438 10439 10439 10440 10441 10443 10444 10446 10446 10448 10448 10449 10449 10449 10448 10448 10448 10448 10448 10447 10447 10448 10451 10452 10453 10453 10456 10459 10460 10461 10461 10461 10462 10462 10464 10466 10467 10466 10466 10468 10469 10469 10468 10468 10467 10467 10466 10466 10466 10466 10466 10466 10466 10466 10466 10466 10466 10466 10466 10465 10465 10464 10464 10464 10464 10464 10464 10464 10464 10464 10464 10464 10464 10463 10463 10463 10463 10462 10462 10461 10461
10426 10427 10428 10428 10429 10429 10430 10431 10431 10433 10434 10436 10436 10438 10439 10440 10441 10442 10442 10443 10443 10444 10445 10444 10443 10443 10444 10444 10444 10444 10446 10449 10451 10452 10453 10455 10456 10455 10454 10456 10459 10460 10459 10459 10461 10462 10463 10463 10461 10461 10461 10461 10460 10460 10460 10460 10460 10460 10460 10460 10460 10460 10460 10460 10459 10459 10459 10459 10460 10460 10460 10459 10459 10459 10459 10459 10459 10459 10459 10459 10458 10458 10458 10458 10457 10456
10417 10418 10419 10419 10420 10421 10421 10422 10423 10424 10425 10426 10428 10429 10430 10431 10432 10432 10432 10433 10436 10439 10439 10439 10440 10441 10441 10440 10439 10439 10441 10443 10443 10444 10446 10449 10449 10448 10447 10449 10451 10452 10452 10452 10452 10453 10455 10455 10455 10454 10454 10454 10454 10454 10453 10453 10454 10454 10454 10454 10454 10454 10454 10454 10455 10455 10456 10456 10456 10456 10456 10456 10455 10455 10455 10455 10455 10454 10454 10454 10454 10453 10453 10453 10452 10451
10409 10409 10411 10411 10412 10413 10413 10414 10414 10416 10417 10418 10419 10420 10421 10422 10423 10423 10422 10424 10428 10430 10430 10431 10433 10435 10436 10436 10436 10438 10438 10437 10437 10438 10440 10442 10441 10440 10441 10444 10445 10445 10445 10445 10445 10445 10446 10446 10447 10448 10448 10447 10447 10447 10447 10447 10448 10448 10448 10449 10449 10449 10450 10451 10451 10451 10451 10451 10451 10451 10451 10451 10451 10451 10451 10450 10450 10450 10449 10449 10449 10449 10448 10448 10448 10447
10400 10401 10403 10403 10404 10405 10406 10406 10407 10408 10409 10410 10411 10411 10412 10413 10414 10414 10415 10417 10419 10420 10420 10421 10423 10426 10428 10430 10433 10434 10434 10433 10433 10434 10436 10436 10434 10433 10434 10437 10438 10438 10440 10441 10441 10440 10439 10440 10441 10442 10442 10442 10442 10441 10441 10442 10443 10443 10444 10444 10445 10445 10446 10446 10446 10447 10447 10447 10447 10447 10447 10446 10446 10446 10446 10446 10445 10445 10444 10444 10444 10444 10443 10443 10443 10442
10392 10393 10394 10395 10397 10398 10399 10399 10400 10401 10402 10403 10404 10404 10404 10405 10406 10406 10408 10409 10410 10410 10411 10411 10413 10416 10419 10422 10424 10425 10425 10426 10429 10433 10434 10433 10430 10428 10429 10431 10431 10431 10433 10436 10436 10436 10436 10436 10437 10438 10439 10439 10438 10438 10438 10438 10439 10439 10439 10440 10441 10441 10441 10442 10442 10443 10443 10443 10443 10443 10442 10442 10441 10441 10441 10441 10440 10440 10439 10439 10439 10439 10439 10438 10438 10437
10384 10385 10386 10388 10389 10391 10392 10393 10394 10394 10395 10396 10396 10398 10398 10398 10399 10399 10400 10401 10402 10403 10403 10403 10404 10406 10409 10412 10414 10416 10416 10419 10423 10427 10431 10431 10428 10426 10428 10428 10427 10426 10428 10429 10431 10431 10431 10431 10432 10433 10435 10435 10434 10434 10434 10434 10434 10435 10436 10436 10436 10436 10437 10438 10438 10438 10438 10438 10438 10438 10438 10437 10436 10436 10436 10436 10436 10435 10434 10434 10434 10434 10434 10433 10433 10432
10376 10378 10379 10380 10382 10384 10385 10386 10388 10389 10389 10389 10389 10390 10391 10391 10392 10393 10393 10394 10395 10396 10396 10396 10396 10396 10398 10401 10404 10407 10409 10411 10414 10418 10422 10424 10424 10423 10424 10426 10426 10424 10424 10425 10426 10426 10427 10426 10427 10428 10429 10430 10430 10429 10429 10429 10430 10431 10431 10431 10431 10431 10432 10433 10433 10433 10433 10433 10433 10433 10433 10432 10432 10431 10431 10431 10431 10430 10429 10429 10429 10429 10428 10428 10428 10426
10369 10370 10371 10373 10374 10376 10378 10380 10381 10383 10383 10383 10383 10383 10384 10385 10386 10387 10388 10388 10389 10389 10389 10389 10389 10389 10389 10391 10393 10396 10400 10403 10406 10409 10413 10415 10415 10416 10417 10419 10421 10421 10422 10423 10423 10424 10424 10423 10423 10424 10424 10424 10425 10425 10424 10424 10425 10425 10426 10426 10427 10427 10427 10428 10428 10428 10428 10428 10428 10428 10428 10427 10427 10426 10426 10426 10426 10425 10424 10424 10424 10423 10423 10423 10422 10421
10361 10362 10363 10365 10367 10368 10370 10372 10374 10376 10376 10376 10376 10376 10378 10379 10379 10381 10381 10383 10383 10384 10384 10384 10384 10383 10383 10383 10384 10386 10389 10393 10398 10403 10406 10407 10407 10408 10409 10411 10413 10414 10416 10417 10418 10420 10421 10421 10421 10421 10421 10421 10421 10421 10421 10421 10421 10421 10421 10421 10422 10423 10423 10423 10423 10423 10423 10423 10423 10423 10423 10422 10422 10421 10421 10421 10420 10420 10419 10419 10418 10418 10417 10416 10416 10416
10353 10353 10354 10356 10358 10360 10362 10363 10366 10368 10369 10369 10369 10369 10371 10373 10374 10374 10376 10376 10378 10378 10379 10379 10379 10379 10378 10378 10376 10376 10378 10383 10389 10395 10398 10399 10400 10401 10401 10402 10403 10406 10409 10409 10410 10413 10414 10415 10416 10417 10418 10418 10418 10416 10416 10416 10417 10417 10417 10417 10418 10418 10418 10419 10419 10419 10419 10419 10418 10418 10418 10417 10416 10416 10416 10415 10415 10414 10414 10413 10413 10412 10411 10411 10411 10411
10344 10345 10346 10348 10350 10351 10353 10354 10356 10359 10361 10361 10361 10363 10364 10366 10367 10368 10369 10371 10372 10373 10374 10374 10374 10375 10374 10374 10372 10369 10369 10372 10378 10385 10389 10391 10392 10393 10394 10394 10396 10398 10401 10401 10402 10404 10407 10408 10409 10410 10412 10413 10413 10411 10411 10411 10412 10412 10411 10411 10412 10413 10413 10413 10414 10414 10414 10413 10413 10412 10411 10411 10411 10410 10409 10409 10409 10409 10408 10408 10407 10407 10406 10406 10406 10405
10336 10337 10338 10339 10341 10343 10344 10346 10348 10349 10351 10353 10353 10354 10356 10358 10360 10362 10364 10365 10366 10367 10368 10369 10369 10370 10370 10370 10368 10366 10363 10364 10368 10374 10379 10382 10384 10385 10386 10386 10388 10389 10392 10394 10395 10397 10399 10401 10401 10403 10404 10404 10405 10406 10405 10406 10406 10406 10404 10404 10406 10407 10408 10408 10408 10408 10408 10408 10407 10406 10406 10405 10404 10404 10404 10404 10404 10403 10403 10403 10402 10402 10401 10401 10401 10400
10328 10329 10330 10331 10332 10334 10335 10336 10338 10340 10342 10344 10344 10346 10348 10350 10353 10355 10357 10358 10359 10361 10361 10363 10363 10364 10364 10364 10364 10363 10360 10359 10361 10364 10369 10373 10375 10377 10378 10379 10379 10381 10383 10386 10388 10389 10391 10393 10394 10395 10396 10397 10398 10399 10399 10400 10400 10399 10399 10399 10399 10401 10401 10402 10402 10402 10402 10402 10401 10401 10400 10399 10399 10399 10399 10399 10399 10399 10398 10398 10397 10397 10396 10396 10396 10395
10320 10321 10321 10323 10324 10325 10326 10328 10329 10331 10333 10335 10336 10338 10339 10342 10344 10346 10349 10351 10352 10353 10354 10356 10356 10358 10358 10358 10358 10358 10357 10356 10356 10358 10361 10364 10367 10369 10371 10371 10372 10373 10375 10378 10380 10382 10384 10385 10386 10388 10389 10391 10391 10392 10393 10394 10394 10394 10394 10394 10394 10394 10394 10396 10396 10396 10396 10396 10396 10395 10394 10394 10394 10394 10394 10394 10394 10393 10393 10393 10392 10391 10391 10391 10391 10389
10312 10313 10313 10314 10316 10317 10318 10319 10321 10323 10324 10326 10327 10329 10331 10333 10335 10338 10340 10342 10344 10345 10346 10348 10349 10351 10351 10352 10352 10352 10353 10352 10353 10354 10356 10358 10360 10362 10364 10364 10366 10366 10368 10371 10372 10374 10376 10378 10379 10380 10381 10383 10384 10385 10386 10386 10387 10388 10389 10389 10388 10388 10389 10390 10391 10391 10391 10391 10391 10390 10389 10389 10389 10389 10389 10389 10388 10388 10388 10388 10387 10386 10386 10386 10385 10385
10303 10303 10304 10306 10308 10309 10310 10311 10313 10314 10316 10317 10318 10319 10321 10323 10326 10329 10331 10333 10335 10337 10338 10340 10342 10343 10344 10345 10346 10346 10347 10348 10348 10349 10350 10352 10354 10356 10357 10358 10359 10361 10362 10364 10365 10367 10369 10371 10372 10373 10374 10376 10377 10378 10378 10379 10380 10381 10383 10383 10382 10382 10383 10384 10384 10385 10386 10384 10384 10384 10384 10384 10383 10383 10383 10383 10383 10383 10383 10382 10382 10381 10381 10380 10379 10379
10294 10294 10296 10298 10299 10301 10302 10303 10304 10306 10307 10308 10309 10311 10312 10314 10317 10319 10322 10324 10326 10328 10329 10332 10333 10335 10336 10337 10338 10339 10341 10341 10343 10343 10344 10346 10348 10349 10351 10351 10353 10354 10356 10358 10359 10360 10362 10364 10366 10366 10367 10369 10371 10371 10371 10372 10373 10374 10376 10376 10376 10377 10378 10376 10377 10378 10379 10379 10379 10379 10379 10378 10378 10378 10378 10378 10378 10377 10377 10377 10376 10376 10375 10375 10374 10374
10285 10286 10288 10290 10292 10293 10294 10295 10296 10297 10298 10300 10301 10303 10304 10306 10309 10311 10313 10315 10316 10319 10321 10323 10325 10327 10328 10329 10330 10332 10333 10334 10336 10338 10339 10340 10341 10343 10344 10346 10347 10348 10350 10352 10353 10354 10355 10358 10359 10359 10361 10363 10364 10364 10364 10366 10367 10368 10368 10369 10370 10371 10371 10369 10370 10372 10373 10373 10373 10373 10373 10373 10373 10373 10372 10372 10372 10372 10371 10371 10371 10370 10370 10369 10369 10369
10277 10279 10280 10282 10284 10285 10286 10286 10287 10288 10290 10292 10293 10294 10296 10298 10301 10303 10305 10306 10308 10310 10313 10314 10317 10319 10320 10321 10322 10324 10326 10328 10329 10331 10333 10334 10335 10337 10338 10339 10341 10343 10344 10346 10347 10348 10349 10351 10352 10353 10355 10357 10358 10358 10358 10359 10361 10361 10362 10363 10364 10364 10364 10364 10365 10366 10366 10366 10366 10367 10367 10367 10367 10367 10366 10366 10366 10366 10366 10366 10365 10365 10364 10364 10364 10364
10269 10270 10272 10273 10275 10276 10277 10278 10279 10281 10282 10283 10284 10286 10288 10291 10293 10295 10297 10299 10301 10303 10304 10306 10309 10311 10311 10312 10314 10316 10318 10319 10321 10323 10326 10327 10329 10331 10332 10333 10335 10337 10338 10339 10341 10343 10344 10345 10346 10348 10349 10351 10351 10351 10352 10353 10354 10355 10355 10356 10357 10358 10358 10358 10359 10359 10360 10361 10361 10361 10361 10361 10361 10361 10361 10360 10360 10360 10360 10360 10360 10360 10359 10359 10359 10359
10259 10261 10263 10264 10266 10268 10268 10269 10271 10273 10274 10275 10276 10278 10280 10283 10285 10287 10289 10291 10293 10295 10296 10299 10301 10303 10304 10304 10307 10309 10310 10312 10314 10316 10318 10320 10322 10324 10326 10328 10329 10331 10333 10334 10335 10337 10338 10339 10341 10342 10343 10344 10344 10345 10346 10348 10348 10349 10349 10349 10351 10351 10351 10351 10353 10353 10354 10354 10355 10355 10355 10356 10356 10355 10354 10354 10354 10354 10354 10354 10355 10355 10354 10354 10354 10354
10249 10251 10253 10255 10257 10258 10259 10261 10263 10264 10265 10266 10268 10270 10273 10274 10277 10279 10281 10283 10285 10288 10289 10291 10293 10295 10296 10298 10299 10301 10303 10304 10306 10308 10310 10313 10314 10316 10319 10321 10323 10324 10326 10328 10330 10331 10333 10334 10336 10336 10338 10338 10338 10339 10339 10341 10343 10343 10343 10344 10344 10345 10345 10345 10346 10348 10349 10349 10349 10349 10349 10349 10349 10349 10349 10349 10349 10349 10349 10349 10349 10349 10349 10349 10349 10349
10239 10241 10243 10245 10248 10249 10251 10252 10254 10256 10257 10259 10260 10262 10264 10266 10269 10271 10273 10275 10278 10280 10282 10283 10286 10288 10289 10291 10292 10294 10296 10298 10299 10301 10303 10305 10307 10309 10311 10313 10316 10318 10319 10322 10324 10325 10326 10328 10329 10331 10332 10333 10333 10333 10333 10335 10336 10338 10338 10338 10339 10339 10339 10339 10341 10342 10343 10343 10343 10344 10344 10344 10344 10344 10344 10344 10343 10343 10344 10344 10344 10344 10344 10344 10344 10344
10229 10231 10233 10236 10238 10239 10241 10243 10245 10248 10249 10250 10252 10254 10256 10258 10261 10263 10265 10267 10269 10272 10274 10276 10278 10280 10282 10283 10284 10287 10289 10291 10293 10295 10296 10298 10300 10302 10304 10306 10308 10311 10313 10314 10317 10319 10320 10321 10323 10324 10326 10327 10328 10328 10328 10329 10330 10331 10332 10333 10333 10334 10334 10334 10335 10336 10338 10338 10338 10338 10338 10338 10338 10338 10339 10339 10338 10338 10338 10339 10339 10339 10339 10339 10339 10339
10218 10221 10223 10226 10228 10230 10232 10234 10236 10238 10240 10241 10243 10246 10248 10250 10253 10254 10256 10259 10261 10264 10266 10269 10271 10273 10274 10276 10278 10279 10282 10284 10286 10288 10290 10292 10294 10296 10297 10298 10301 10303 10305 10308 10309 10312 10314 10315 10316 10317 10318 10320 10322 10323 10323 10323 10324 10326 10326 10326 10327 10328 10329 10329 10330 10331 10332 10332 10332 10333 10333 10333 10333 10333 10333 10333 10333 10333 10333 10333 10333 10334 10334 10334 10334 10334